Tracking 34719 objects as of 12-Jul-2026
HD Live streaming from Space Station
objects crossing your sky now

SCOUT G-1 DEB

Track SCOUT G-1 DEB now!
10-day predictions


NORAD ID: 43332
Int'l Code: 1988-033N
Perigee: 1,002.6 km
Apogee: 1,276.6 km
Inclination: 90.3 °
Period: 108.0 minutes
Semi major axis: 7510 km
RCS: Unknown
Launch date: April 26, 1988
Source: United States (US)
Launch site: AIR FORCE WESTERN TEST RANGE (AFWTR)

Note: This is SATELLITE DEBRIS
Your satellite tracking list
Your tracking list is empty




NASA's NSSDC Master Catalog

Two Line Element Set (TLE):
1 43332U 88033N   26180.29786404  .00000397  00000-0  71446-3 0  9998
2 43332  90.3194  19.5338 0182408 161.5704 199.2163 13.33809077478156
Source of the keplerian elements: AFSPC